This demonstration page uses our WeatherBlox Daily Observations layout. Learn more.

Left ArrowRight Arrow

47.50024, -111.30081

Hourly Observations for November 7, 2015

Temp ( °F °C ) Dew Point ( °F °C ) Humidity (%) Winds ( mph kmh ) Pressure ( in mb ) Visibility ( mi km ) Precip ( " mm )
12:53 am 00:53 Clear 35 1.7 25 -3.9 67 67 SSW 17 28 30.17 1022 10 16 0.00 0.00
1:53 am 01:53 Clear 36 2.2 25 -3.9 64 64 SSW 18 30 30.16 1021 10 16 0.00 0.00
2:53 am 02:53 Clear 36 2.2 25 -3.9 64 64 SSW 20 31 30.17 1022 10 16 0.00 0.00
3:53 am 03:53 Clear 36 2.2 25 -3.9 64 64 SSW 21 33 30.16 1021 10 16 0.00 0.00
4:53 am 04:53 Clear 37 2.8 25 -3.9 62 62 SSW 25 41 30.15 1021 10 16 0.00 0.00
5:53 am 05:53 Clear 37 2.8 24 -4.4 59 59 SSW 21 33 30.16 1021 10 16 0.00 0.00
6:53 am 06:53 Clear 37 2.8 25 -3.9 62 62 SSW 23 37 30.14 1021 10 16 0.00 0.00
7:53 am 07:53 Sunny 39 3.9 26 -3.3 60 60 SSW 20 31 30.12 1020 10 16 0.00 0.00
8:53 am 08:53 Sunny 42 5.6 26 -3.3 53 53 SSW 18 30 30.14 1021 10 16 0.00 0.00
9:53 am 09:53 Sunny 46 7.8 27 -2.8 47 47 SSW 21 33 30.11 1020 10 16 0.00 0.00
10:53 am 10:53 Sunny 49 9.4 28 -2.2 44 44 SSW 24 39 30.11 1020 10 16 0.00 0.00
11:53 am 11:53 Sunny 50 10 29 -1.7 44 44 SW 26 43 30.07 1018 10 16 0.00 0.00
12:53 pm 12:53 Sunny 53 11.7 30 -1.1 41 41 SSW 24 39 30.04 1017 10 16 0.00 0.00
1:53 pm 13:53 Sunny 53 11.7 29 -1.7 40 40 SW 29 46 30.00 1016 10 16 0.00 0.00
2:53 pm 14:53 Sunny 53 11.7 28 -2.2 38 38 S 22 35 29.97 1015 10 16 0.00 0.00
3:53 pm 15:53 Sunny 50 10 29 -1.7 44 44 SSW 22 35 29.97 1015 10 16 0.00 0.00
4:53 pm 16:53 Sunny 45 7.2 28 -2.2 52 52 S 16 26 29.96 1015 10 16 0.00 0.00
5:53 pm 17:53 Clear 44 6.7 27 -2.8 51 51 SSW 23 37 29.95 1014 10 16 0.00 0.00
6:53 pm 18:53 Clear 45 7.2 26 -3.3 48 48 SSW 21 33 29.95 1014 10 16 0.00 0.00
7:53 pm 19:53 Clear 43 6.1 26 -3.3 51 51 SSW 16 26 29.95 1014 10 16 0.00 0.00
8:53 pm 20:53 Clear 43 6.1 25 -3.9 49 49 S 15 24 29.93 1014 10 16 0.00 0.00
9:53 pm 21:53 Clear 43 6.1 24 -4.4 47 47 SSW 16 26 29.91 1013 10 16 0.00 0.00
10:53 pm 22:53 Clear 41 5 23 -5 49 49 S 16 26 29.91 1013 10 16 0.00 0.00
11:53 pm 23:53 Clear 42 5.6 22 -5.6 45 45 SSW 16 26 29.89 1012 10 16 0.00 0.00

Powered by AerisWeather